Regional Weather Roundup
Issued by NWS

Home | Current Version | Previous Version | Text Only | Print | Product List | Glossary On
Versions: 1 2 3 4 5 6 7 8 9 10 11 12 13 14 15 16 17 18 19 20 21 22 23 24 25 26 27 28 29 30 31 32 33 34 35 36 37 38 39 40 41 42 43 44 45 46 47 48 49 50
000
ASUS44 KEWX 260810
RWRTX
SOUTH TEXAS REGIONAL WEATHER ROUNDUP
NATIONAL WEATHER SERVICE AUSTIN/SAN ANTONIO TX
200 AM CST MON JAN 26 2015

NOTE: "FAIR" INDICATED FEW OR NO CLOUDS BELOW 12,000 FEET WITH NO
SIGNIFICANT WEATHER AND/OR OBSTRUCTIONS TO VISIBILITY.

* - THESE STATIONS ARE NOT NWS OR FAA STATIONS...AND ARE NOT SUBJECT
    TO NWS AND FAA QUALITY CONTROL.

TXZ171-172-183>190-260900-
TEXAS HILL COUNTRY AND EDWARDS PLATEAU

CITY           SKY/WX    TMP DP  RH WIND       PRES   REMARKS
JUNCTION       CLEAR     35  31  85 W5        30.25F WCI  31
*LLANO         CLEAR     39  32  75 CALM      30.26S
BURNET         CLEAR     51  29  42 N9        30.22S
*HORSESHOE BAY CLEAR     48  31  52 W5        30.21S WCI  46
*KERRVILLE     PTCLDY    36  32  86 W3        30.24F
*FREDERICKSBRG CLEAR     37  31  79 CALM      30.23S
*ROCKSPRINGS   CLEAR     48  28  46 CALM      30.28S
*BOERNE STAGE  CLEAR     39  32  75 CALM      30.24S
*CASTROVILLE   CLEAR     43  35  72 W9        30.25S WCI  38
HONDO          PTCLDY    40  33  76 NW9       30.26S WCI  34
*UVALDE        PTCLDY    47  34  60 CALM      30.25S
DEL RIO        CLOUDY    45  38  76 NW5       30.26F WCI  43
LAUGHLIN AFB   CLOUDY    41  36  81 NW7       30.26F WCI  37
CARRIZO SPRGS  MOCLDY    45  37  76 W5        30.25R WCI  42
$$

TXZ173-191>194-202-209-217>225-228-260900-
CENTRAL AND SOUTH CENTRAL TEXAS

CITY           SKY/WX    TMP DP  RH WIND       PRES   REMARKS
GEORGETOWN     CLEAR     45  30  57 NW8       30.20S WCI  40
AUSTIN/BERGSTM CLEAR     46  33  60 W7        30.20R WCI  42
AUSTIN/MABRY   CLEAR     50  33  52 NW6       30.20S WCI  48
*AUSTIN/EXEC   CLEAR     52  32  46 N13       30.18S
*LAGO VISTA    CLEAR     55  28  35 W5        30.20S
SAN MARCOS     CLEAR     46  30  53 W6        30.21S WCI  43
NEW BRAUNFELS  CLEAR     45  35  68 W8        30.21S WCI  41
RANDOLPH AFB   CLEAR     44  32  63 NW1       30.22S
PT SAN ANTONIO CLEAR     42  35  75 N1        30.21S
SAN ANTONIO    CLEAR     43  34  70 NW5       30.23S WCI  40
STINSON FIELD  CLEAR     43  36  76 CALM      30.22S
*PLEASANTON    CLEAR     45  36  71 CALM      30.24S
*LA GRANGE     CLEAR     47  35  63 SW7       30.17S WCI  43
*GIDDINGS      NOT AVBL
*GONZALES      CLEAR     47  35  63 CALM      30.20S
$$

TXZ163>164-176>182-195>201-210>213-226-227-235-260900-
SOUTHEAST TEXAS

CITY           SKY/WX    TMP DP  RH WIND       PRES   REMARKS
COLLEGE STN    CLEAR     48  30  49 NW5       30.19S WCI  46
*BRYAN         CLEAR     46  30  53 W5        30.21R WCI  44
*CALDWELL      CLEAR     48  28  46 NW6       30.23S WCI  46
*CROCKETT      CLEAR     45  32  61 NW3       30.22R
*BRENHAM       CLEAR     54  32  43 N12       30.19S
HUNTSVILLE     FAIR      49  27  42 NW7       30.18R WCI  46
CONROE         CLEAR     50  27  40 NW9       30.18R WCI  46
HOUSTON BUSH   PTCLDY    55  27  34 N16       30.15S
HOUSTON HOBBY  PTCLDY    54  28  36 N10       30.14R
*HOUSTON SW AP CLEAR     47  33  58 W3        30.16R
PEARLAND       CLEAR     47  32  56 CALM      30.16R
HOUSTON HOOKS  CLEAR     56  25  30 N10G17    30.16S
ELLINGTON FLD  PTCLDY    55  27  33 NW9       30.15S
SUGAR LAND     CLEAR     49  29  46 NW6       30.15R WCI  46
*HOUSTON EXEC    N/A    N/A N/A N/A MISG        N/A
*CLEVELAND MUN NOT AVBL
*WHARTON       CLEAR     46  38  73 W7        30.20R WCI  42
*COLUMBUS      NOT AVBL
$$

TXZ214>216-236>238-260900-
THE UPPER TEXAS COAST

CITY           SKY/WX    TMP DP  RH WIND       PRES   REMARKS
*ORANGE        CLEAR     55  28  36 NW13G18   30.13S
PORT ARTHUR    CLEAR     55  30  38 NW14G23   30.12R
GALVESTON      CLEAR     51  37  58 W3        30.16R
ANGLETON       CLEAR     48  34  58 CALM      30.16F
*BAY CITY      CLEAR     46  40  80 W3        30.19S
PALACIOS       CLEAR     49  40  71 W7        30.20S WCI  46
$$

TXZ229>234-239>247-260900-
TEXAS COASTAL BEND AND RIO GRANDE PLAINS

CITY           SKY/WX    TMP DP  RH WIND       PRES   REMARKS
VICTORIA       CLEAR     45  38  76 NW8       30.21S WCI  41
*BEEVILLE      CLEAR     52  37  56 NW5       30.23R
ROCKPORT       MOCLDY    53  44  71 NW6       30.21S
*PORT ARANSAS  CLEAR     52  44  76 NW3       30.21S
*PORT LAVACA   CLEAR     47  41  77 W6        30.21S WCI  45
*INGLESIDE     MOCLDY    50  42  73 NW6       30.21S WCI  48
CORPUS CHRISTI MOCLDY    48  42  80 NW8       30.22R WCI  44
CORPUS NAS     PTCLDY    50  45  83 NW5       30.21S WCI  48
*ROBSTOWN      NOT AVBL
ALICE          MOCLDY    51  40  65 NW9       30.22S
KINGSVILLE NAS PTCLDY    49  42  77 W5        30.23R WCI  47
COTULLA        MOCLDY    47  42  83 NW3       30.25S
*FAITH RANCH   MOCLDY    48  39  71 NW5       30.26S WCI  46
LAREDO         NOT AVBL
$$

TXZ248>255-260900-
DEEP SOUTH TEXAS

CITY           SKY/WX    TMP DP  RH WIND       PRES   REMARKS
BROWNSVILLE    PTCLDY    51  45  79 W5        30.23R
PORT ISABEL    PTCLDY    53  46  77 W8        30.23R
*SOUTH PADRE   PTCLDY   N/A N/A N/A CALM      30.22S
HARLINGEN      PTCLDY    51  45  79 W7        30.23R
*HEBBRONVILLE  MOCLDY    51  39  63 W7        30.25S
MCALLEN        MOCLDY    53  44  71 CALM      30.25R
*WESLACO       PTCLDY    53  43  68 W3        30.24S
FALFURRIAS     MOCLDY    49  38  66 CALM      30.24R
EDINBURG       PTCLDY    53  40  63 NW6       30.25R
*ZAPATA        PTCLDY    49  37  65 NW5       30.25S WCI  47
$$

TXZ213>215-236>238-242>244-246-247-251-254-255-260900-
CMAN STATIONS

STATION/POSITION TIME  TEMP    WIND        PRES    WAVE
                       AIR SEA DIR/SP/G            HT/PER
                 (UTC) (F)     (DEG/KT/KT) (MB)    (FT/S)
SABINE PASS      0800   56 52  340/ 10/ 14 1019.8
SEA RIM ST PARK  0800   48     340/  8/ 10 1020.5
NORTH JETTY/GLS  0800   55 53  360/ 12/ 13   N/A
EAGLE POINT      0800   58 53  340/  8/ 13 1020.6
MORGANS POINT    0800   60     340/  7/ 14 1020.3
MISSION/ARANSAS  0700   55     VRB  4      1024.0
PORT O`CONNOR    0800          300/  6/  6   N/A
PORT ARANSAS     0800   57 56  320/  8/  8 1023.6
MALAQUITE BEACH  0800   56 57  300/  7/  7 1022.5
BAFFIN BAY       0800   55     280/  6/  7 1023.3
PORT ISABEL      0800   54 56  270/  4/  6 1023.5
$$

GMZ080-GMZ150>470-260900-
OFFSHORE BUOY REPORTS

STATION/POSITION TIME  TEMP    WIND        PRES    WAVE
                       AIR SEA DIR/SP/G            HT/PER
                 (UTC) (F)     (DEG/KT/KT) (MB)    (FT/S)
20 E GALVESTON   0800   58 55  310/ 10/ 12 1020.2    2/ 6
90 E PT ARANSAS  0800   66 69  340/ 16/ 17 1022.4    3/ 4
35 NE PT MANSFLD 0800   66 66  310/  8/  8 1022.9    1
200 E PT ISABEL  0800   70 72  350/ 19/ 25 1020.8    6/ 6
$$


USA.gov is the U.S. government's official web portal to all federal, state and local government web resources and services.